User: anonymous   Login
Location: Góry Miechowskie
(50.3599°N, 20.1803°E)
Time: 22:42:45
(UTC+00:00)
Language:

CZ-4B R/B - Orbit

View from above orbital plane
View from above orbital plane
View from above satellite
View from above satellite

Ground track
Ground track

The orbit data is extracted from the following two-line orbital elements,

1 32959U 08026B   25322.13331544  .00000343  00000-0  11422-3 0  9995
2 32959  98.8841  20.2369 0069037 178.4131 236.1319 14.42916817919647
Epoch (UTC): 18 November 2025 03:11:58
Eccentricity: 0.0069037
inclination: 98.8841°
perigee height: 699 km
apogee height: 798 km
right ascension of ascending node: 20.2369°
argument of perigee: 178.4131°
revolutions per day: 14.42916817
mean anomaly at epoch: 236.1319°
orbit number at epoch: 91964

The dashed part of the orbit path shows where the satellite is in the earth's shadow,  

DLR